Regional Weather Roundup
Issued by NWS

Home | Current Version | Previous Version | Text Only | Print | Product List | Glossary Off
Versions: 1 2 3 4 5 6 7 8 9 10 11 12 13 14 15 16 17 18 19 20 21 22 23 24 25 26 27 28 29 30 31 32 33 34 35 36 37 38 39 40 41 42 43 44 45 46 47 48 49 50

000
ASUS45 KBOU 260407
RWRCO

WEATHER ROUNDUP FOR COLORADO
NATIONAL WEATHER SERVICE DENVER/BOULDER CO
1000 PM MDT SAT APR 25 2015

NOTE: "FAIR" INDICATES FEW OR NO CLOUDS BELOW 12000 FEET WITH NO
SIGNIFICANT WEATHER AND/OR OBSTRUCTIONS TO VISIBILITY.

COZ001>005-013-030-031-260500-
...NORTHWEST COLORADO...

CITY           SKY/WX    TMP DP  RH WIND       PRES   REMARKS
CRAIG          CLOUDY    44  36  73 S13       29.80S
HAYDEN         CLOUDY    39  36  87 CALM      29.81S
MEEKER         CLOUDY    42  37  82 CALM      29.78F
MOUNT WERNER   NOT AVBL
STEAMBOAT SPGS CLOUDY    40  36  84 SW10G18   29.82R
WALDEN         CLOUDY    36  32  87 SE3       29.85R
$$

COZ006>008-011-260500-
...WEST CENTRAL VALLEYS...

CITY           SKY/WX    TMP DP  RH WIND       PRES   REMARKS
GRAND JUNCTION CLOUDY    45  45 100 NW7       29.74R
MONTROSE       LGT RAIN  45  40  82 E7        29.81R
EAGLE          CLOUDY    46  37  71 E6        29.82S
RIFLE          CLOUDY    45  42  89 E6        29.79F
DELTA          NOT AVBL
NUCLA          LGT RAIN  45  37  76 S7        29.81R
$$

COZ017>023-064>068-260500-
...SOUTHWEST COLORADO...

CITY           SKY/WX    TMP DP  RH WIND       PRES   REMARKS
DURANGO        CLOUDY    42  36  79 NE7       29.82S
CORTEZ         LGT RAIN  48  38  68 W3        29.80R
PAGOSA SPRINGS CLOUDY    39  37  92 W3        29.85S
TELLURIDE      LGT SNOW  34  34 100 CALM      29.88F
WOLF CREEK PAS NOT AVBL
$$

COZ009-010-012-014-032>034-037-058>063-260500-
...CENTRAL COLORADO...

CITY           SKY/WX    TMP DP  RH WIND       PRES   REMARKS
ASPEN          LGT RAIN  40  35  83 SW9       29.85R
BUENA VISTA    LGT RAIN  39  35  83 E5        29.86R
COPPER MTN     CLOUDY    32  28  86 E3        29.95S
BERTHOUD PASS  HAZE      23  16  74 MISG      29.99S VSB<1/4
COTTONWOOD PAS CLOUDY    36  34  93 CALM      29.91R VSB 1
GUNNISON       CLOUDY    43  34  70 NE3       29.85S
KREMMLING      CLOUDY    37  34  87 E6        29.86F
LEADVILLE      LGT SNOW  31  30  96 SW14      29.90R VSB 3/4 WCI  21
MONARCH PASS   CLOUDY    28  25  86 SW14      30.07S WCI  17
SALIDA         CLOUDY    50  33  51 W6        29.88S
SUNLIGHT       CLOUDY    32  32 100 CALM      29.94S
WILKERSON PASS MOCLDY    30  27  86 S9        29.97F WCI  22
$$

COZ069>075-260500-
...SAN LUIS VALLEY/SANGRE DE CRISTO MOUNTAINS...

CITY           SKY/WX    TMP DP  RH WIND       PRES   REMARKS
ALAMOSA        MOCLDY    40  28  62 SW7       29.84S
LA VETA PASS   PTCLDY    34  25  69 S9G22     29.94S WCI  26
SAGUACHE       CLOUDY    45  28  53 N6        29.84R
$$

COZ035-036-038>040-260500-
...NORTHERN COLORADO FRONT RANGE...

CITY           SKY/WX    TMP DP  RH WIND       PRES   REMARKS
DENVER INTL AP CLOUDY    50  41  71 NE6       29.78R
DMNS CITY PARK   N/A     52  39  61 SW1G14    29.78R
AURORA         MOCLDY    52  39  60 W1        29.79R
FRONT RANGE AP NOT AVBL
ERIE MUNI ARPT CLOUDY    50  43  77 N7        29.77F
BOULDER MUN AP RAIN      50  43  76 NW6       29.79S
CENTENNIAL     CLOUDY    50  37  61 W12       29.78R
BROOMFIELD     PTCLDY    50  43  76 NW10      29.78F
FORT COLLINS   MOCLDY    50  39  66 W5        29.81R
LONGMONT       DRIZZLE   53  44  71 CALM      29.81S
$$

COZ041-046-047-076>085-087-088-260500-
...PIKES PEAK/PALMER DIVIDE AND SOUTHERN FOOTHILLS...

CITY           SKY/WX    TMP DP  RH WIND       PRES   REMARKS
COLO. SPRINGS  CLOUDY    57  29  34 E22G28    29.78R
A. F. ACADEMY  CLOUDY    50  33  50 NE7       29.79R
ELLICOTT       CLOUDY   N/A N/A N/A SE12      29.77R
FALCON         CLOUDY    51  29  43 S10       29.83R
FORT CARSON    CLOUDY    53  35  51 N3        29.75R
LIMON          CLOUDY    54  38  54 SE13      29.76S
MONUMENT HILL  CLOUDY    45  34  65 CALM      29.82R
TRINIDAD       CLEAR     53  27  36 W10       29.73S
$$

COZ042>045-048>051-090-091-260500-
...NORTHEAST COLORADO...

CITY           SKY/WX    TMP DP  RH WIND       PRES   REMARKS
GREELEY ARPT   CLOUDY    50  39  66 NE16      29.78R
AKRON          CLOUDY    49  44  83 NE14      29.76F
BURLINGTON     CLEAR     53  48  83 E16       29.75R
WRAY           CLOUDY    56  51  81 E20       29.76R
STERLING       RAIN      48  46  93 N13       29.78F
HOLYOKE        CLOUDY    55  50  82 E18       29.80R
FORT MORGAN    CLOUDY    49  44  84 NE14G24   29.76R
$$

COZ086-089-092>099-260500-
...SOUTHEAST COLORADO...

CITY           SKY/WX    TMP DP  RH WIND       PRES   REMARKS
PUEBLO         CLOUDY    64  27  24 NE10      29.69R
LA JUNTA       PTCLDY    61  35  37 E17       29.68R
LAMAR          PTCLDY    60  43  53 E13       29.68R
SPRINGFIELD      N/A     53  35  50 E10       29.71R
$$



USA.gov is the U.S. government's official web portal to all federal, state and local government web resources and services.